| |
Missouri Department of Transportation

Social Media Facebook Twitter Flickr Instagram YouTube RSS

Current METAR Information for All MoDOT Locations 
AWOS Home - General Info for all Airports
Current AWOS for all Airports - Current METAR for all Airports
Glossary - Disclaimer - Other Links


Automated Weather Observation System
Date: 01-24-2017
 
Location Current METAR Record
HANNIBAL METAR KHAE 241259Z AUTO 11004KT 10SM OVC009 01/M02 A2987 RMK AO2
HARRISONVILLE  No current data available
LEBANON  No current data available
MALDEN  No current data available
MARSHALL METAR KMHL 241325Z AUTO 10008KT 2SM BR OVC003 01/01 A2982 RMK AO2
MARYVILLE  No current data available
MEXICO  No current data available
MOBERLY  No current data available
NEVADA  No current data available
PIEDMONT  No current data available
SIKESTON  No current data available
SULLIVAN METAR KUUV 241259Z AUTO 00000KT 5SM BR CLR M02/M02 A2990 RMK AO2
WARSAW METAR KRAW 241311Z AUTO 11008KT 5SM BR CLR M00/M01 A2977 RMK AO2
About Us
How Do I...
Contact Us
Missouri Department of Transportation
Central Office
105 W. Capitol Avenue
Jefferson City, MO 65102
1-888-ASK-MODOT (275-6636)
1-866-831-6277 (Motor Carrier Services)
Driver's License Offices
horz_bar
| | |
Missouri State Government
© 2013 Missouri Department of Transportation. All Rights Reserved.   Privacy Policy.
 
 
 
 
RSS FeedYoutubeBlogFlickrTwitter Facebook